Regional Weather Roundup
Issued by NWS

Home | Current Version | Previous Version | Text Only | Print | Product List | Glossary Off
Versions: 1 2 3 4 5 6 7 8 9 10 11 12 13 14 15 16 17 18 19 20 21 22 23 24 25 26 27 28 29 30 31 32 33 34 35 36 37 38 39 40 41 42 43 44 45 46 47 48 49 50

000
ASUS43 KDTX 012201
RWRMI
MICHIGAN HOURLY REGIONAL WEATHER ROUNDUP
NATIONAL WEATHER SERVICE DETROIT/PONTIAC MI
600 PM EDT WED JUL 01 2015

NOTE: "FAIR" INDICATES FEW OR NO CLOUDS BELOW 12,000 FEET WITH NO
SIGNIFICANT WEATHER AND/OR OBSTRUCTION TO VISIBILITY.

MIZ047>049-052>055-059>063-066>070-074>076-081>083-012300-
SOUTHEAST LOWER MICHIGAN

CITY           SKY/WX    TMP DP  RH WIND       PRES   REMARKS
ADRIAN         MOSUNNY   71  53  52 NW7       29.90F
ALMA           CLOUDY    68  53  58 N7        29.92F
ANN ARBOR      PTSUNNY   70  55  59 MISG      29.91S
BAD AXE        CLOUDY    66  57  73 NW6       29.91F
CARO           MOSUNNY   69  58  69 W7        29.91S
DETROIT CITY   MOSUNNY   71  55  56 N7        29.89F
DETROIT        PTSUNNY   71  57  61 W7        29.91R
FLINT          CLOUDY    66  55  67 NW6       29.93S
GROSSE ILE     MOSUNNY   73  59  60 W9        29.89R
HILLSDALE      MOSUNNY   70  52  51 W6        29.91F
HOWELL         PTSUNNY   68  54  60 NW6       29.92S

CITY           SKY/WX    TMP DP  RH WIND       PRES   REMARKS
JACKSON        PTSUNNY   70  55  59 N6        29.91S
LAMBERTVILLE   SUNNY     74  55  51 W7        29.90F
LANSING        PTSUNNY   68  52  56 NW7       29.93R
LAPEER         CLOUDY    65  56  72 NW3       29.92S
MASON          MOSUNNY   66  52  60 NW7       29.92S
MONROE         MOSUNNY   72  60  67 NW8       29.89S
MT. CLEMENS    PTSUNNY   69  58  68 NW9       29.89S
PONTIAC        PTSUNNY   65  56  72 NW9       29.91R
PORT HOPE        N/A     61  57  87 N6        29.91S
PORT HURON     CLOUDY    61  57  88 NE8       29.92R
TRI CITIES     CLOUDY    68  55  63 NW3       29.92F
MIDLAND        FAIR      69  53  56 N3        29.91S
TROY           PTSUNNY   69  57  65 NW7       29.93R
SAGINAW HB     CLOUDY    64  55  72 NW5       29.91F
$$
MIZ043>046-050>051-056>058-064>065-071>073-077>080-012300-
SOUTHWEST LOWER MICHIGAN

CITY           SKY/WX    TMP DP  RH WIND       PRES   REMARKS
BATTLE CREEK   PTSUNNY   69  53  56 NW10      29.93S
BENTON HARBOR  CLOUDY    59  51  75 MISG      29.97S
BIG RAPIDS     CLOUDY    63  51  65 NW7       29.94S
COLDWATER      MOSUNNY   69  45  40 W7        29.92S
FREMONT        PTSUNNY   60  53  77 NW12      29.95F
HOLLAND        PTSUNNY   61  51  70 W8        29.97S
GRAND RAPIDS   PTSUNNY   67  52  58 NW9       29.93S
IONIA          FAIR      67  52  58 NW6       29.91F
KALAMAZOO      MOSUNNY   65  52  62 NW12      29.94S
LUDINGTON      CLOUDY    58  51  77 N5        29.97F
MARSHALL       MOSUNNY   68  52  56 W5        29.91S
MOUNT PLEASANT PTSUNNY   68  52  57 N5        29.92S
MUSKEGON       CLOUDY    62  52  69 NW13      29.96S
SOUTH HAVEN    CLOUDY    58  51  78 N10       29.97S
$$
MIZ016>042-012300-
NORTHERN LOWER MICHIGAN

CITY           SKY/WX    TMP DP  RH WIND       PRES   REMARKS
ALPENA         CLOUDY    63  54  72 N10       29.94R
BEAVER ISLAND  SUNNY     62  49  62 NW6       29.98S
BELLAIRE       CLOUDY    60  51  72 W3        29.97F
CADILLAC       CLOUDY    60  52  76 N8        29.96F
CHARLEVOIX     SUNNY     62  53  71 W8        30.00S
FRANKFORT      PTSUNNY   62  47  58 NE5       29.98F
GAYLORD        CLOUDY    59  54  83 NW8       29.96S
GRAYLING       CLOUDY    58  53  83 NW7       29.97S
HARBOR SPRINGS MOSUNNY   64  52  64 W5        29.96S
HOUGHTON LAKE  CLOUDY    60  52  74 NW10      29.95F
MANISTEE       CLOUDY    57  48  72 NW6       29.98F
OSCODA         CLOUDY    64  57  79 CALM      29.91S
PELLSTON       MOSUNNY   64  50  60 NW13      29.95S
ROGERS CITY    CLOUDY    62  54  75 NW9       29.95R
TRAVERSE CITY  CLOUDY    60  51  72 N6        29.97S
$$
MIZ007>008-015-012300-
EASTERN UPPER MICHIGAN

CITY           SKY/WX    TMP DP  RH WIND       PRES   REMARKS
KINROSS        SUNNY     61  46  59 NW17      29.94S
MACKINAC ISLAN CLOUDY    61  52  71 W3        29.95R
NEWBERRY       MOSUNNY   59  45  59 N9G18     29.98S
S. S. MARIE    SUNNY     60  46  59 NW15G24   29.95R
MUNISING         N/A     53  45  74 NE5       30.02F
$$
MIZ004>006-011>014-085-012300-
CENTRAL UPPER MICHIGAN

CITY           SKY/WX    TMP DP  RH WIND       PRES   REMARKS
MANISTIQUE     MOSUNNY   63  42  47 NW14G21   29.98S
ESCANABA       SUNNY    N/A N/A N/A N9        29.98S
MENOMINEE      SUNNY     64  48  55 E9        29.98S
SAWYER-GWINN   SUNNY     61  39  44 NE10      30.02S
$$
MIZ001>003-009>011-084-012300-
WESTERN UPPER MICHIGAN

CITY           SKY/WX    TMP DP  RH WIND       PRES   REMARKS
IRON MOUNTAIN  SUNNY     70  42  36 N7        29.98S
HOUGHTON       PTSUNNY   66  42  41 N6        30.01F
COPPER HARBOR    N/A     56  48  74 N10       30.01F
IRONWOOD       SUNNY     66  45  45 N6        29.99S
$$

ABBREVIATIONS USED IN REMARKS
   TC - TEMPERATURE IN CELSIUS
  WCI - WIND CHILL INDEX
   HX - HEAT INDEX
  VSB - VISIBILITY




USA.gov is the U.S. government's official web portal to all federal, state and local government web resources and services.